TimeEST,TemperatureF,Dew PointF,Humidity,Sea Level PressureIn,VisibilityMPH,Wind Direction,Wind SpeedMPH,Gust SpeedMPH,PrecipitationIn,Events,Conditions,WindDirDegrees,DateUTC
12:56 AM,30.9,27.0,85,30.09,10.0,Calm,Calm,-,N/A,,Clear,0,2013-12-16 05:56:00
1:56 AM,32.0,26.1,79,30.08,10.0,SW,3.5,-,N/A,,Clear,230,2013-12-16 06:56:00
2:56 AM,30.9,26.1,82,30.09,10.0,West,4.6,-,N/A,,Clear,270,2013-12-16 07:56:00
3:56 AM,32.0,26.1,79,30.09,10.0,Calm,Calm,-,N/A,,Clear,0,2013-12-16 08:56:00
4:56 AM,30.9,26.1,82,30.10,10.0,Calm,Calm,-,N/A,,Clear,0,2013-12-16 09:56:00
5:56 AM,30.0,26.1,85,30.12,10.0,Calm,Calm,-,N/A,,Clear,0,2013-12-16 10:56:00
6:56 AM,28.9,26.1,89,30.13,10.0,Calm,Calm,-,N/A,,Clear,0,2013-12-16 11:56:00
7:56 AM,30.0,27.0,88,30.14,10.0,Calm,Calm,-,N/A,,Clear,0,2013-12-16 12:56:00
8:56 AM,36.0,28.9,76,30.17,10.0,Calm,Calm,-,N/A,,Clear,0,2013-12-16 13:56:00
9:56 AM,41.0,28.9,62,30.19,10.0,Variable,3.5,-,N/A,,Clear,0,2013-12-16 14:56:00
10:56 AM,46.0,30.0,54,30.17,10.0,Variable,3.5,-,N/A,,Clear,0,2013-12-16 15:56:00
11:56 AM,50.0,30.0,46,30.15,10.0,Variable,5.8,-,N/A,,Clear,0,2013-12-16 16:56:00
12:56 PM,51.1,30.0,44,30.12,10.0,Variable,4.6,-,N/A,,Clear,0,2013-12-16 17:56:00
1:56 PM,54.0,30.0,40,30.11,10.0,Variable,4.6,-,N/A,,Clear,0,2013-12-16 18:56:00
2:56 PM,55.0,30.0,38,30.10,10.0,Variable,5.8,-,N/A,,Clear,0,2013-12-16 19:56:00
3:56 PM,54.0,32.0,43,30.11,10.0,Calm,Calm,-,N/A,,Clear,0,2013-12-16 20:56:00
4:56 PM,48.0,34.0,58,30.12,10.0,Calm,Calm,-,N/A,,Clear,0,2013-12-16 21:56:00
5:56 PM,43.0,36.0,76,30.13,10.0,Calm,Calm,-,N/A,,Clear,0,2013-12-16 22:56:00
6:56 PM,42.1,34.0,73,30.14,10.0,Calm,Calm,-,N/A,,Clear,0,2013-12-16 23:56:00
7:56 PM,42.1,35.1,76,30.15,10.0,Calm,Calm,-,N/A,,Clear,0,2013-12-17 00:56:00
8:56 PM,42.1,34.0,73,30.14,10.0,Calm,Calm,-,N/A,,Clear,0,2013-12-17 01:56:00
9:56 PM,41.0,34.0,76,30.13,10.0,Calm,Calm,-,N/A,,Clear,0,2013-12-17 02:56:00
10:56 PM,39.9,33.1,77,30.14,10.0,Calm,Calm,-,N/A,,Clear,0,2013-12-17 03:56:00
11:56 PM,39.0,33.1,79,30.12,10.0,Calm,Calm,-,N/A,,Clear,0,2013-12-17 04:56:00